Results 2012

Wapack Trail Race Application Directions Contact Info Records Wapack Scenery Results 2005 Results 2006 Results 2007 Results 2008 Results 2009 Results 2010 Results 2011 Results 2012 Results 2013 Results 2014 Results 2015 Results 2016 Results 2017 2005 Photos 2006 Photos 2008 Photos 2009 Photos 2010 Photos 2012 Photos Race Stories The "Other" Race

Sunday, September 2, 2012, 9:00 a.m.

PlaceLastFirstGenderAgeTownStTime%
1RusieckiBrianM33South DeerfieldMA2:31:17100.00%
2HerrDaveM47CanaanVT2:34:4997.72%
3SauvolaLarsM37RindgeNH2:41:5893.40%
4SchmittKeithM43DurhamNH2:43:0692.75%
5TrufanovStanislavM33SomervilleMA2:49:1889.36%
6BennettToddM42ColumbiaCT2:58:3084.75%
7ThompsonBenM21CambridgeMA2:59:5884.06%
8FlandersGabrielM36HiramME3:02:2382.95%
9KetolaHoseaM31RindgeNH3:03:3182.44%
10AllenKelseyF29ColrainMA3:05:5881.35%
11CoteScottM27Gales FerryCT3:07:5680.50%
12McInerneyJonM22New IpswichNH3:09:5079.69%
13JacksonWilliamM30SalemMA3:12:2678.62%
14WadeMichaelM43NashuaNH3:13:0578.35%
15CowlesTedM53West GranbyCT3:15:2977.39%
16PatnodeScottM31MarlboroMA3:16:4676.88%
17Rusiecki (Lane)AmyF33South DeerfieldMA3:16:5976.80%
18EsbittGregM38SalemMA3:16:5976.80%
19SomeroGregM29New Ipswich NH3:18:4976.09%
20BrownToddM48Rocky HillCT3:21:5274.94%
21ParkerAlexM45West RoxburyMA3:22:3674.67%
22VogelJeffM35ArlingtonMA3:27:1972.97%
23NaideKenM40MiltonMA3:28:0372.71%
24FunchPaulM62GrotonMA3:28:2072.62%
25SharkeyBobM60NewportRI3:29:2372.25%
26LoweGregoryM48Mansfield Ma3:30:0971.99%
27TashevMiroslavM49WilmingtonMA3:32:0371.34%
28DumasTimM44AyerMA3:35:1370.29%
29BoudreauDavidM40BrooklineNH3:35:5370.08%
30HebertGaryM47NorwichCT3:37:1369.65%
31FeyMartinM58PutnamCT3:38:0469.37%
32PandiscioCurtM51GranbyCT3:38:5469.11%
33SmithLarryM48HollistonMA3:42:1868.05%
34BertramBradyM32New IpswichNH3:42:1968.05%
35AllenElaineF44HamdenCT3:42:5067.89%
36StroudRussellM42SimsburyCT3:43:2167.73%
37MorrisMikeM34MarlboroughMA3:43:3667.66%
38NawnBillM48BedfordNH3:45:3567.06%
39MaherMikeM47South EastonMA3:47:5466.38%
40MullenKevinM55FairhavenMA3:48:4166.15%
41CollinsRichardM56Cape NeddickME3:49:3165.91%
42ChauvinHeidiF38KearsargeNH3:51:2965.35%
43HammondRussellM52KillingworthCT3:51:4165.30%
44LeBlancDaneM54LittletonMA3:52:2765.08%
45HammondMicheleF53KillingworthCT3:54:0364.64%
46BenoitBrandonM20GreenfieldNH3:55:5264.14%
47BanfieldRyanM28MilfordNH3:55:5264.14%
48DunfeyBobM61Cape ElizabethMA3:55:5564.13%
49PulickChristopherM42RawleyMA3:56:4563.90%
50LaneJeffM36MedfordMA3:57:0963.79%
51SiegelEricM29BrooklineMA3:57:1663.76%
52PriceJamesM53JaffreyNH3:57:4063.65%
53JewettGaryM46BeverlyMA3:58:1963.48%
54GillisBobM57GloucesterMA3:58:1963.48%
55AgbayChristopherM35JeffersonMA4:01:3062.64%
56LiuChangM23WorcesterMA4:02:4062.34%
57HowlandJenniferF24DanversMA4:03:3762.10%
58EllentonJustinM38IpswichMA4:03:4162.08%
59WhippleTylerM30SpringfieldNH4:07:0161.24%
60EhrlichBruceM52Jamaica PlainMA4:10:2260.42%
61AgbayMichaelM39West BoylstonMA4:11:2560.17%
62MorganAmy F34WoburnMA4:12:0560.01%
63NaplesDomonicM45MarlboroMA4:13:1559.74%
64BenderBrianM23BostonMA4:13:4559.62%
65Leland IIBrigM28NewburyportMA4:14:1459.51%
66DaneckiDanM53TewksburyMA4:14:4559.39%
67SlovenkaiDonM56New IpswichNH4:18:1558.58%
68EdingtonScottM54MansfieldCT4:22:3257.62%
69DaneckiWillM62New MilfordCT4:22:5557.54%
70BaconJasonM41PawtucketRI4:24:3157.19%
71MariniMelissaF40AyerMA4:27:0256.65%
72DiComesMarcM32BedfordNH4:30:2055.96%
73FinestonePaulaF44BillericaMA4:35:1954.95%
74MulveyCherylF52BoxfordMA4:35:2054.95%
75BlaisVickiF55TopsfieldMA4:35:2054.95%
76AgbayPeterM37ShrewsburyMA4:40:3053.93%
77SantorellaElizabethF21CambridgeMA4:43:3753.34%
78McGrathArtM61MarlboroughNH4:43:4253.33%
79AndersonLinneaF26ProvidenceRI4:43:4353.32%
80MuellerPeterM39FitchburgMA4:47:2652.63%
81FinneyEricM42ChelmsfordMA4:48:2452.46%
82BallNoraF38EppingNH5:00:4650.30%
83StrumKevinM56PeabodyMA5:00:5950.26%
84FinkeTimM36GoffstownNH5:01:1250.23%
85LaGruttaJoyF37ShirleyMA5:01:3550.16%
86SegalBobM59SomervilleMA5:02:5749.94%
87MulveyEdwardM53BoxfordMA5:03:1949.88%
88BrazilTomM50Topsfield MA5:15:1447.99%
89GodinTammyF49North GraftonMA5:15:1447.99%
90MellorRichardM62RindgeNH5:26:2346.35%
91WilsonCraigM63Kittery PointME5:37:4244.80%
92AkersSharonF34LyndeboroughNH5:46:4443.63%
93IrvingChrisM32MedfordMA5:55:3242.55%
94KroonStaceyF29NorwoodMA5:55:3242.55%
95SnyderErikaF26SharonMA5:55:3342.55%
96RaczkowskiDavidM61ChaplinCT6:53:2936.59%

Race Report

Clear skies, temperatures in the 60s, and low humidity greeted the record field of runners this year.  Views of Mt. Monadnock were once again spectacular and the trail was generally very dry, although a few dark clouds and even a quick hard rain appeared during the race.  While a logging operation along the trail had threatened to cause a detour of an extra 2 miles and 600 feet of elevation, it was unexpectedly cleared up just before the race. 

The highlight of the day was a lowering of the women’s course record set just last year by Amy Rusiecki (Lane).  Kelsey Allen, 29, of Colrain, MA brought the record down by over a minute to 3:05:58.  Amy, 33,  was the second woman to finish, in a time of 3:16:59, and led the 30-39 age group.  On the men’s side, Brian Rusiecki, 33, of South Deerfield, MA led at the turnaround and continued to set the pace, finishing in an excellent time of 2:31:17.   

In the 40-49 and 50-59 women’s age groups, Elaine Allen, 44, of Hamden, CT and Michele Hammond, 53, of Killingworth, CT both put in strong performances (age group records), finishing in  3:42:50 and 3:54:03, respectively.  In the 20-29 men’s age group, newcomer Ben Thompson, 21,  of Cambridge, MA led the pack with a time of 2:59:58.  For the 40-49 men’s age group, Dave Herr, 47, of Canaan, VT took the top spot and came in second overall to Brian with a time of 2:34:49.  In the 50-59 and 60-69 men’s age groups, Ted Cowles, 53, of West Granby, CT and Paul Funch, 62, of Groton, MA took the top spots with times of 3:15:29 (age group record) and 3:28:20, respectively.

The Wapack Trail Race in 2013 will be held on the Sunday of Labor Day weekend.